Total_Precipitation_Accumulation
1.67 1.64 1.61 1.54 1.55 1.56 1.64 1.81 2.02 1.86 1.43 1.11 1.02 1.05 1.13 1.15 1.21 1.12 0.99 1.07 1.08 1.06 1.07 1.08 1.13 1.22 1.26 1.34 1.48 1.62 1.78 1.96 2.16 2.36 2.53 2.62 2.70 2.83
1.60 1.57 1.49 1.42 1.46 1.52 1.59 1.66 1.83 1.97 1.69 1.17 1.00 0.95 1.03 1.06 1.13 1.04 0.95 1.09 1.05 0.98 0.93 0.94 0.99 1.10 1.20 1.27 1.29 1.35 1.42 1.55 1.74 1.96 2.17 2.38 2.51 2.64
1.57 1.58 1.52 1.43 1.42 1.43 1.47 1.51 1.58 1.73 1.71 1.24 1.05 1.03 1.05 1.04 1.04 0.99 0.92 0.91 0.89 0.97 0.92 0.90 0.92 1.00 1.10 1.19 1.25 1.25 1.28 1.38 1.50 1.66 1.84 2.03 2.19 2.29
1.43 1.46 1.47 1.45 1.44 1.40 1.39 1.38 1.35 1.36 1.47 1.30 1.02 0.99 0.99 0.98 1.03 1.05 0.99 0.90 0.81 0.89 0.89 0.87 0.89 0.92 0.98 1.08 1.19 1.26 1.27 1.29 1.34 1.43 1.54 1.63 1.78 1.99
1.33 1.34 1.36 1.41 1.39 1.30 1.26 1.24 1.22 1.24 1.32 1.34 1.12 0.99 0.97 0.97 1.03 1.04 1.01 0.98 0.91 0.93 0.96 0.93 0.94 0.93 0.98 1.05 1.13 1.24 1.31 1.32 1.30 1.32 1.40 1.47 1.56 1.73
1.32 1.32 1.28 1.27 1.23 1.19 1.19 1.18 1.25 1.36 1.39 1.43 1.31 1.12 1.05 1.01 1.08 1.08 1.06 1.00 1.01 0.99 1.08 1.11 1.10 1.06 1.03 1.05 1.09 1.16 1.26 1.36 1.42 1.45 1.49 1.55 1.59 1.65
1.28 1.25 1.22 1.24 1.22 1.20 1.22 1.22 1.29 1.46 1.57 1.62 1.52 1.34 1.22 1.14 1.10 1.06 1.13 1.14 1.15 1.11 1.11 1.11 1.12 1.12 1.11 1.14 1.15 1.15 1.23 1.33 1.48 1.61 1.67 1.69 1.71 1.75
1.28 1.20 1.17 1.23 1.20 1.22 1.25 1.31 1.45 1.63 1.76 1.79 1.69 1.49 1.21 1.09 1.11 1.25 1.41 1.59 1.53 1.15 1.15 1.18 1.15 1.22 1.16 1.14 1.28 1.32 1.31 1.38 1.46 1.55 1.64 1.68 1.68 1.70
1.21 1.17 1.11 1.07 1.13 1.04 1.13 1.26 1.34 1.47 1.55 1.56 1.53 1.25 1.10 1.06 1.30 1.59 1.64 1.68 1.47 1.18 1.35 1.49 1.32 1.30 1.20 1.23 1.42 1.32 1.28 1.33 1.39 1.42 1.46 1.52 1.52 1.54
1.11 1.10 1.10 1.08 1.07 1.13 1.19 1.25 1.12 1.05 1.09 1.08 1.12 1.10 1.11 1.23 1.54 1.88 2.00 2.00 1.75 1.52 1.54 1.68 1.38 1.26 1.21 1.25 1.44 1.34 1.22 1.19 1.26 1.33 1.35 1.37 1.37 1.42
0.97 0.97 1.01 1.00 1.17 1.34 1.39 1.40 1.19 0.97 0.98 1.10 1.22 1.26 1.34 1.45 1.59 1.95 2.25 2.39 2.08 1.56 1.39 1.52 1.41 1.33 1.34 1.31 1.37 1.44 1.31 1.25 1.24 1.29 1.35 1.36 1.34 1.38
0.91 0.90 1.02 1.04 1.20 1.34 1.29 1.37 1.33 1.10 1.03 1.08 1.14 1.18 1.16 1.26 1.52 1.70 2.23 2.80 2.49 1.90 1.32 1.45 1.49 1.60 1.87 1.44 1.26 1.32 1.35 1.39 1.36 1.33 1.35 1.35 1.36 1.34
0.89 0.83 0.84 1.08 1.21 1.29 1.24 1.13 1.24 1.30 1.23 1.21 1.22 1.21 1.21 1.25 1.34 1.47 1.85 2.65 3.02 2.37 1.53 1.93 2.13 1.86 2.07 1.69 1.37 1.35 1.39 1.46 1.51 1.47 1.42 1.39 1.36 1.39
0.87 0.78 0.83 1.06 1.09 1.12 1.09 1.14 1.32 1.34 1.21 1.34 1.42 1.40 1.36 1.36 1.39 1.47 1.60 1.84 2.16 2.21 1.78 2.14 2.62 2.20 2.29 1.93 1.47 1.40 1.48 1.61 1.67 1.63 1.53 1.54 1.45 1.42
0.90 0.94 0.97 1.01 0.99 0.98 1.09 1.22 1.22 1.13 1.27 1.51 1.53 1.45 1.45 1.52 1.58 1.64 1.64 1.66 1.71 1.68 1.68 1.77 2.08 2.11 2.30 2.23 1.73 1.51 1.67 1.82 1.88 1.89 1.75 1.58 1.44 1.37
0.97 0.98 0.95 0.93 0.94 0.98 1.07 1.07 1.05 1.14 1.41 1.59 1.59 1.51 1.52 1.62 1.73 1.83 1.96 1.91 1.92 1.74 1.55 1.47 1.57 1.94 2.15 1.84 1.90 1.79 1.78 2.13 2.23 2.20 1.95 1.71 1.52 1.36
1.01 0.94 0.89 0.88 0.90 0.90 0.93 0.96 1.03 1.18 1.33 1.38 1.55 1.63 1.61 1.67 1.76 1.86 2.02 2.05 1.98 1.71 1.49 1.36 1.37 1.51 1.72 1.81 1.89 1.74 1.79 1.97 2.16 2.22 2.04 1.97 1.81 1.59
1.07 1.01 0.95 0.91 0.93 0.94 0.96 1.00 1.04 1.18 1.33 1.51 1.65 1.77 1.85 1.89 1.94 1.93 1.96 1.99 1.87 1.58 1.39 1.27 1.31 1.47 1.47 1.41 1.57 1.71 1.76 1.92 2.08 2.06 1.86 1.94 1.97 1.75
1.02 0.98 0.97 0.98 1.00 1.01 1.04 1.10 1.14 1.19 1.45 1.71 1.84 1.92 2.03 2.07 2.05 1.97 1.82 1.72 1.56 1.35 1.21 1.14 1.30 1.74 1.81 1.34 1.13 1.38 1.85 1.99 1.90 1.90 1.80 1.78 1.93 1.78
0.91 1.00 1.07 1.10 1.11 1.12 1.16 1.26 1.34 1.40 1.57 1.77 1.89 1.98 2.13 2.21 2.06 1.80 1.60 1.48 1.38 1.21 1.07 0.98 1.08 1.59 2.18 1.95 1.58 1.36 1.54 1.93 2.11 2.07 1.76 1.62 1.68 1.67
0.86 0.96 1.05 1.11 1.15 1.18 1.23 1.35 1.51 1.65 1.74 1.91 2.00 2.08 2.16 2.16 1.88 1.51 1.29 1.18 1.19 1.17 1.11 0.93 0.87 1.10 1.55 1.83 1.65 1.27 1.37 1.60 1.91 2.31 2.19 2.04 1.82 1.58
0.81 0.90 0.97 1.06 1.16 1.27 1.35 1.46 1.62 1.70 1.79 1.91 2.02 2.04 1.94 1.83 1.63 1.31 1.17 1.17 1.12 1.07 1.01 0.88 0.83 0.97 1.30 1.68 1.48 1.16 1.20 1.27 1.30 1.40 1.76 2.22 2.73 2.64
0.86 0.93 0.98 1.06 1.18 1.32 1.45 1.52 1.61 1.69 1.79 1.92 1.92 1.80 1.64 1.47 1.26 1.21 1.16 1.12 1.11 1.06 1.02 0.99 0.94 0.97 1.08 1.20 1.31 1.21 1.12 1.10 1.06 1.14 1.42 1.47 1.62 1.89